Regional Weather Roundup
Issued by NWS

Home | Current Version | Previous Version | Text Only | Print | Product List | Glossary Off
Versions: 1 2 3 4 5 6 7 8 9 10 11 12 13 14 15 16 17 18 19 20 21 22 23 24 25 26 27 28 29 30 31 32 33 34 35 36 37 38 39 40 41 42 43 44 45 46 47 48 49 50

000
ASUS43 KFSD 250502
RWRSD

WEATHER ROUNDUP FOR SOUTH DAKOTA
NATIONAL WEATHER SERVICE SIOUX FALLS SD
1200 AM CDT MON JUL 25 2016

NOTE: "FAIR" INDICATES FEW OR NO CLOUDS BELOW 12,000 FEET WITH NO
SIGNIFICANT WEATHER AND/OR OBSTRUCTIONS TO VISIBILITY.


SDZ001>005-009-010-012>017-250600-
NORTHWEST AND NORTH CENTRAL SOUTH DAKOTA

CITY           SKY/WX    TMP DP  RH WIND       PRES   REMARKS
BUFFALO          N/A     73  46  38 SE13      30.00S
FAITH            N/A     70  44  39 S14       30.08S
MOBRIDGE       CLEAR     69  57  65 SE3       30.04S
$$

SDZ012>016-024>037-041>051-057-063-072>074-250600-
SOUTHWEST AND SOUTH CENTRAL SOUTH DAKOTA

CITY           SKY/WX    TMP DP  RH WIND       PRES   REMARKS
RAPID CTY ARPT CLEAR     65  51  60 S7        30.11S
PIERRE         CLEAR     64  50  60 E6        30.06S
CUSTER         CLEAR     66  45  46 S3        30.27S
ELLSWORTH AFB  CLEAR     71  51  48 SE5       30.10S
PHILIP         CLEAR     68  53  58 E7        30.07F
PINE RIDGE     CLEAR     73  53  49 SE7       30.14S
WINNER         FAIR      72  56  57 S9        30.12R
$$

SDZ004>011-016>023-039-040-250600-
NORTHEAST SOUTH DAKOTA

CITY           SKY/WX    TMP DP  RH WIND       PRES   REMARKS
ABERDEEN       CLEAR     63  59  87 SE3       30.05S
WATERTOWN      CLEAR     67  60  78 W5        30.07S
BROOKINGS      CLEAR     67  63  87 CALM      30.08S
SISSETON         N/A     67  59  75 W7        30.02R
$$

SDZ017-020-022-023-036>040-048>070-250600-
SOUTHEAST SOUTH DAKOTA

CITY           SKY/WX    TMP DP  RH WIND       PRES   REMARKS
SIOUX FALLS    PTCLDY    68  62  81 W3        30.08S
HURON          CLEAR     70  58  65 SW5       30.06S
CHAMBERLAIN    CLEAR     70  54  56 CALM      30.09S
MITCHELL       CLEAR     69  59  70 SW9       30.09S
YANKTON        CLEAR     70  61  73 SW6       30.08R
$$

ABBREVIATIONS USED IN REMARKS
   TC - TEMPERATURE IN CELSIUS
  WCI - WIND CHILL INDEX
   HX - HEAT INDEX
  VSB - VISIBILITY





USA.gov is the U.S. government's official web portal to all federal, state and local government web resources and services.